Voltar ao catálogo

STARLINK-5256

AtivoComunicaçõesVLEO
NORAD 54175·PAYLOAD·🇺🇸 United States

Lançado Oct 28, 2022 de Vandenberg Space Force Base

Loading…

Próximas Passagens (próximas 24 horas)

TLE

AtualizadoSource: CelesTrak SupGP

Época: Sep 14, 2026, 20:39 UTC

1 54175C 22141U   26257.86090278  .00035008  00000+0  10344-2 0  2570
2 54175  53.1570 220.2811 0001270  93.8908 331.2066 15.34370953    10

Acompanhe STARLINK-5256 em tempo real com AllMySat

Download on the App Store